[[{"header":{"parameterUnit":"m.s-1","parameterCategory":2,"la1":30.2991,"la2":30.254,"lo1":-89.0895,"lo2":-89.0444,"dy":0.0017,"dx":0.0017,"nx":28,"ny":28,"refTime":"2024-03-03T03:00:00:Z","depth":"0","parameterNumber":2,"parameterNumberName":"U-component_of_CURRENTS"},"data":[0,0,0,0,0,0,0,0,0,0,0,0,0,0,0,0,0,0,0,0,0,0,0,0,0,0,0,0,0,0,0,0,0,0,0,0,0,0,0,0,0,0,0,0,0,0,0,0,0,0,0,0,0,0,0,0,0,0,-0.2157,-0.2157,0,-0.2158,-0.2158,-0.2158,-0.2134,-0.2134,-0.2134,-0.2133,-0.2071,-0.207,-0.2068,0,0,0,0,0,0,0,0,0,0,0,0,0,-0.2064,-0.2066,-0.2157,-0.2157,-0.2158,-0.2158,-0.2158,-0.2157,-0.2134,-0.2134,-0.2133,-0.2133,-0.2072,-0.207,-0.2068,0,0,0,0,0,0,0,0,0,0,0,0,0,-0.2085,-0.2067,-0.2157,-0.2149,-0.2149,-0.2158,-0.2158,-0.2157,-0.2134,-0.2134,-0.2133,-0.2133,-0.2072,-0.207,-0.2068,-0.2061,0,0,-0.2061,-0.206,0,0,0,0,0,0,0,0,-0.2084,-0.2088,-0.215,-0.215,-0.215,-0.215,-0.2103,-0.2124,-0.2134,-0.2135,-0.2133,-0.2133,-0.2095,-0.2091,-0.2086,-0.2058,-0.2056,-0.2061,-0.206,-0.2059,-0.2058,0,0,0,0,0,0,0,-0.2082,-0.2087,-0.2153,-0.2151,-0.2151,-0.2123,-0.2125,-0.2106,-0.2112,-0.2135,-0.2134,-0.2142,-0.2094,-0.2088,-0.2084,-0.2055,-0.2061,-0.2059,-0.2058,-0.2057,-0.2006,-0.2006,0,0,0,0,0,0,-0.2096,-0.2086,-0.2153,-0.2153,-0.212,-0.2125,-0.2128,-0.2146,-0.2113,-0.211,-0.2142,-0.2141,-0.2092,-0.2087,-0.2082,-0.2095,-0.2059,-0.2057,-0.2056,-0.2006,-0.2006,-0.2006,0,0,0,0,0,0,-0.2094,-0.2102,-0.2153,-0.2122,-0.2127,-0.2128,-0.2148,-0.2147,-0.2145,-0.2121,-0.2115,-0.2143,-0.2092,-0.2085,-0.2067,-0.2091,-0.2056,-0.2054,-0.2006,-0.2006,-0.2006,-0.2106,0,0,0,0,0,0,-0.2092,-0.2102,-0.2113,-0.2124,-0.213,-0.2165,-0.2149,-0.2147,-0.2152,-0.215,-0.2119,-0.2113,-0.2091,-0.207,-0.2065,-0.2088,-0.2052,-0.2006,-0.2006,-0.2006,-0.2102,-0.2109,-0.2115,0,0,0,0,0,-0.2088,-0.2109,-0.2114,-0.2122,-0.2148,-0.2166,-0.2166,-0.2161,-0.2153,-0.2156,-0.2132,-0.2114,-0.2065,-0.2069,-0.2062,-0.2085,-0.2006,-0.2006,-0.2006,-0.21,-0.2108,-0.2114,0,0,0,0,0,0,-0.2074,-0.211,-0.2115,-0.2146,-0.2159,-0.2164,-0.2169,-0.2166,-0.2151,-0.2147,-0.2116,-0.2108,-0.2099,-0.2071,-0.2075,-0.2065,-0.2032,-0.203,-0.2105,-0.2112,-0.2118,-0.2141,-0.205,0,0,0,0,0,-0.2079,-0.2103,-0.2129,-0.2151,-0.2162,-0.2165,-0.217,-0.2172,-0.2165,-0.2159,-0.2138,-0.2111,-0.2093,-0.2086,-0.2059,-0.2059,-0.2039,-0.2065,-0.2072,-0.2077,-0.2088,-0.2073,-0.208,-0.2005,-0.2005,-0.2005,0,0,-0.2079,-0.2102,-0.2115,-0.2149,-0.2157,-0.218,-0.2166,-0.2183,-0.22,-0.2153,-0.2157,-0.2128,-0.2093,-0.2092,-0.2086,-0.2075,-0.2088,-0.2077,-0.2083,-0.209,-0.2074,-0.2082,-0.2088,-0.2005,-0.2005,-0.2005,0,0,-0.2091,-0.2114,-0.2137,-0.2156,-0.2182,-0.2189,-0.2198,-0.2209,-0.2213,-0.221,-0.2186,-0.2186,-0.2137,-0.2145,-0.2135,-0.2158,-0.2115,-0.2129,-0.2191,-0.2177,-0.2184,-0.219,-0.2185,-0.219,-0.2141,-0.2141,-0.2141,0,-0.2089,-0.2128,-0.2143,-0.2172,-0.2195,-0.2198,-0.2229,-0.2235,-0.2237,-0.2248,-0.2217,-0.2189,-0.2173,-0.2197,-0.2205,-0.218,-0.2148,-0.2174,-0.2189,-0.2194,-0.2198,-0.2192,-0.2195,-0.2146,-0.2145,-0.2145,-0.2144,0,-0.2119,-0.2152,-0.2168,-0.221,-0.2232,-0.226,-0.2285,-0.2297,-0.2292,-0.2298,-0.2306,-0.2283,-0.2268,-0.2267,-0.2242,-0.227,-0.2231,-0.2196,-0.2181,-0.2213,-0.2202,-0.2205,-0.2152,-0.2151,-0.2149,-0.2148,0,0,-0.2111,-0.2178,-0.2182,-0.2209,-0.226,-0.2278,-0.2321,-0.236,-0.2368,-0.2376,-0.2389,-0.2397,-0.2379,-0.2366,-0.2346,-0.235,-0.237,-0.2285,-0.2282,-0.23,-0.2328,-0.23,-0.2299,-0.232,-0.232,-0.2321,-0.2315,0,-0.2129,-0.2192,-0.2222,-0.2272,-0.231,-0.2339,-0.2363,-0.2398,-0.2403,-0.2408,-0.2431,-0.2413,-0.2417,-0.2392,-0.2411,-0.2363,-0.2375,-0.2374,-0.2278,-0.2276,-0.2262,-0.2302,-0.2176,-0.2159,-0.2317,-0.2317,-0.2317,0,-0.2145,-0.2191,-0.2252,-0.2307,-0.2322,-0.2345,-0.2387,-0.2405,-0.2435,-0.243,-0.2457,-0.2442,-0.2483,-0.2442,-0.2448,-0.2433,-0.2394,-0.2366,-0.2364,-0.2305,-0.2252,-0.2147,-0.2156,-0.2123,-0.232,-0.232,-0.2319,0,-0.2126,-0.2204,-0.2253,-0.2279,-0.234,-0.2364,-0.2381,-0.2414,-0.2415,-0.2435,-0.2429,-0.2468,-0.2462,-0.2447,-0.2432,-0.2414,-0.2408,-0.2373,-0.2327,-0.2324,-0.2186,-0.217,-0.2168,-0.2367,-0.2367,-0.2367,-0.2367,0,-0.2132,-0.2165,-0.2245,-0.2267,-0.2299,-0.2345,-0.2347,-0.2371,-0.2382,-0.2381,-0.2427,-0.2434,-0.2451,-0.246,-0.2436,-0.2407,-0.242,-0.2352,-0.2325,-0.2217,-0.2205,-0.2142,-0.2153,-0.2367,-0.2367,-0.2367,-0.2367,0,-0.2091,-0.215,-0.2201,-0.2273,-0.2288,-0.2303,-0.2314,-0.2299,-0.233,-0.2333,-0.2338,-0.2401,-0.2422,-0.2449,-0.2422,-0.2404,-0.2326,-0.2352,-0.2238,-0.2199,-0.212,-0.2141,-0.2122,-0.2065,-0.2298,-0.2297,-0.2297,0,-0.2077,-0.2099,-0.2179,-0.2189,-0.2217,-0.2235,-0.2222,-0.2257,-0.2249,-0.2312,-0.2311,-0.2362,-0.2388,-0.2388,-0.2346,-0.2318,-0.2299,-0.2182,-0.2143,-0.2119,-0.2122,-0.2135,-0.209,-0.1998,-0.1995,-0.1993,-0.1991,0,-0.2027,-0.2052,-0.2086,-0.2114,-0.2122,-0.2109,-0.2115,-0.2114,-0.2154,-0.2184,-0.223,-0.2265,-0.2302,-0.2236,-0.2219,-0.2179,-0.2117,-0.2132,-0.2117,-0.1911,-0.1912,-0.1841,-0.2018,-0.1969,-0.1971,-0.1973,-0.1974,-0.1975,-0.1961,-0.1969,-0.1998,-0.2013,-0.2009,-0.1965,-0.1922,-0.1956,-0.195,-0.1982,-0.2093,-0.2119,-0.2103,-0.2067,-0.2041,-0.1921,-0.1982,-0.1833,-0.1869,-0.1892,-0.1817,-0.1972,-0.1889,-0.189,-0.1892,-0.1893,-0.1894,0,-0.187,-0.1873,-0.1882,-0.1875,-0.1806,-0.1844,-0.1817,-0.1765,-0.1751,-0.1833,-0.1871,-0.1883,-0.1818,-0.1823,-0.1732,-0.1659,-0.1611,-0.1621,-0.1587,-0.1557,-0.1677,-0.1641,-0.1486,-0.1486,-0.1486,-0.1486,-0.1487,-0.1487,-0.1813,-0.1785,-0.1795,-0.1668,-0.1639,-0.151,-0.1472,-0.1462,-0.1486,-0.1499,-0.1545,-0.1633,-0.1636,-0.171,-0.1598,-0.1518,-0.1479,-0.1432,-0.1486,-0.1547,-0.1569,-0.1589,-0.1557,-0.1387,-0.1387,-0.1268,-0.1267,-0.1267]},{"header":{"parameterUnit":"m.s-1","parameterCategory":2,"la1":30.2991,"la2":30.254,"lo1":-89.0895,"lo2":-89.0444,"dy":0.0017,"dx":0.0017,"nx":28,"ny":28,"refTime":"2024-03-03T03:00:00:Z","depth":"0","parameterNumber":3,"parameterNumberName":"V-component_of_CURRENTS"},"data":[0,0,0,0,0,0,0,0,0,0,0,0,0,0,0,0,0,0,0,0,0,0,0,0,0,0,0,0,0,0,0,0,0,0,0,0,0,0,0,0,0,0,0,0,0,0,0,0,0,0,0,0,0,0,0,0,0,0,-0.003,-0.003,0,0.0076,0.0078,0.0079,0.0138,0.0138,0.0138,0.0138,0.0268,0.0271,0.0275,0,0,0,0,0,0,0,0,0,0,0,0,0,-0.0136,-0.0134,-0.003,-0.0029,-0.0028,0.0076,0.0078,0.0079,0.0138,0.0138,0.0138,0.0138,0.0266,0.0271,0.0275,0,0,0,0,0,0,0,0,0,0,0,0,0,-0.0063,-0.0134,-0.0031,0.0011,0.0016,0.0075,0.0078,0.008,0.0138,0.0138,0.0138,0.0138,0.0265,0.027,0.0275,0.0312,0,0,0.0292,0.0294,0,0,0,0,0,0,0,0,-0.0067,-0.0059,0.0004,0.0008,0.0014,0.0091,0.0088,0.0158,0.0139,0.0095,0.0138,0.0138,0.0209,0.0219,0.0243,0.0318,0.0324,0.0292,0.0296,0.0298,0.0299,0,0,0,0,0,0,0,-0.0072,-0.0063,0.0015,0.0005,0.0011,0.004,0.0051,0.0102,0.0155,0.0099,0.0103,0.011,0.0212,0.0238,0.0247,0.0326,0.0292,0.0297,0.03,0.0302,0.0436,0.0436,0,0,0,0,0,0,-0.0094,-0.0067,0.0012,0.0018,-0.0032,0.0042,0.0054,0.0069,0.0154,0.0165,0.011,0.0112,0.0229,0.0241,0.0252,0.0294,0.0298,0.0303,0.0306,0.0436,0.0436,0.0436,0,0,0,0,0,0,-0.0096,-0.0088,0.0007,-0.0026,-0.0012,0.0043,0.0061,0.0071,0.0097,0.0161,0.0174,0.0124,0.0229,0.0244,0.0297,0.0299,0.0305,0.031,0.0435,0.0436,0.0436,0.0381,0,0,0,0,0,0,-0.01,-0.0089,-0.0086,-0.0027,-0.0011,0.0038,0.0061,0.0073,0.01,0.0104,0.0178,0.019,0.023,0.0289,0.0302,0.0307,0.0314,0.0435,0.0436,0.0436,0.0383,0.038,0.0378,0,0,0,0,0,-0.0104,-0.0104,-0.0087,-0.0077,-0.0009,0.0038,0.0049,0.009,0.01,0.0113,0.0162,0.0187,0.0302,0.0294,0.031,0.0315,0.0435,0.0435,0.0436,0.0384,0.0381,0.0378,0,0,0,0,0,0,-0.0154,-0.0096,-0.0076,-0.006,-0.0017,0.0046,0.0056,0.0087,0.0137,0.0138,0.0199,0.0215,0.026,0.0297,0.0286,0.0356,0.037,0.0374,0.0325,0.0323,0.032,0.0299,0.0319,0,0,0,0,0,-0.0164,-0.0144,-0.0087,-0.0075,-0.0057,-0.0,0.0022,0.0053,0.0103,0.0124,0.0175,0.0227,0.0277,0.0306,0.0354,0.0397,0.0417,0.0409,0.0407,0.0404,0.0398,0.042,0.0418,0.0439,0.0439,0.0439,0,0,-0.0183,-0.0148,-0.0139,-0.0084,-0.0049,-0.0025,0.0013,0.0044,0.0067,0.0131,0.0172,0.0221,0.0286,0.0331,0.0354,0.0362,0.0411,0.0405,0.0402,0.0398,0.042,0.0418,0.0416,0.044,0.0439,0.0439,0,0,-0.0212,-0.0178,-0.0172,-0.0137,-0.0088,-0.0049,-0.0043,0.002,0.0051,0.01,0.0147,0.0196,0.0273,0.032,0.0353,0.0367,0.0394,0.038,0.0354,0.0375,0.0373,0.0371,0.0397,0.0398,0.0381,0.0381,0.038,0,-0.0241,-0.0222,-0.0165,-0.0148,-0.0131,-0.0065,-0.0058,-0.0011,0.0062,0.0085,0.0102,0.0212,0.0268,0.0324,0.0329,0.0361,0.0374,0.0358,0.0369,0.0368,0.0368,0.0394,0.0396,0.0378,0.0378,0.0379,0.0379,0,-0.026,-0.0246,-0.0242,-0.0197,-0.0165,-0.0151,-0.0084,-0.005,-0.0009,0.0039,0.0099,0.0176,0.0238,0.0266,0.0306,0.0333,0.0345,0.0359,0.037,0.0362,0.0391,0.0394,0.0374,0.0375,0.0376,0.0377,0,0,-0.0321,-0.027,-0.0267,-0.0265,-0.0194,-0.0175,-0.0133,-0.008,-0.0065,0.0015,0.0036,0.0138,0.0175,0.0215,0.0272,0.0299,0.0315,0.0321,0.0323,0.0334,0.0357,0.0401,0.0409,0.0321,0.0321,0.0321,0.038,0,-0.0358,-0.036,-0.031,-0.031,-0.0309,-0.0235,-0.0203,-0.0141,-0.0087,-0.0048,0.0043,0.0087,0.0158,0.0178,0.0221,0.0289,0.0319,0.0297,0.0375,0.0377,0.0408,0.0413,0.0433,0.049,0.0383,0.0383,0.0384,0,-0.0388,-0.0389,-0.0402,-0.0376,-0.0368,-0.0349,-0.0302,-0.0264,-0.0177,-0.0138,-0.0069,-0.0002,0.0077,0.0117,0.0237,0.0216,0.0278,0.0331,0.0335,0.0396,0.0427,0.0483,0.0499,0.0633,0.0389,0.0388,0.0388,0,-0.0461,-0.0449,-0.0472,-0.0461,-0.0415,-0.0405,-0.0375,-0.0294,-0.0271,-0.0201,-0.0187,-0.0077,-0.003,0.0064,0.0207,0.0208,0.0322,0.0337,0.044,0.0444,0.0488,0.0496,0.0632,0.04,0.0399,0.0399,0.0399,0,-0.0514,-0.053,-0.0514,-0.0523,-0.0549,-0.048,-0.0481,-0.0435,-0.0375,-0.0359,-0.0245,-0.0215,-0.0047,0.0055,0.0172,0.0328,0.0302,0.0436,0.0462,0.0472,0.0477,0.0617,0.0673,0.0401,0.0401,0.0401,0.04,0,-0.0575,-0.0563,-0.0597,-0.0585,-0.0581,-0.0598,-0.0559,-0.0554,-0.049,-0.0472,-0.0456,-0.032,-0.0176,0.0004,0.0167,0.0285,0.0507,0.0477,0.0486,0.0512,0.0729,0.078,0.0932,0.1013,0.0592,0.0593,0.0594,0,-0.0604,-0.0627,-0.0659,-0.0686,-0.0682,-0.0689,-0.0684,-0.0621,-0.0611,-0.0532,-0.0532,-0.039,-0.0267,0.0013,0.0242,0.0466,0.0573,0.0604,0.0617,0.075,0.0826,0.0859,0.0919,0.0655,0.0657,0.0658,0.0659,0,-0.0665,-0.0678,-0.0713,-0.0778,-0.0799,-0.0811,-0.0801,-0.0813,-0.0734,-0.0709,-0.0638,-0.0537,-0.0233,0.0055,0.0367,0.0496,0.0709,0.0638,0.0773,0.0887,0.0935,0.1022,0.0611,0.0671,0.067,0.0669,0.0668,0.0668,-0.0712,-0.0765,-0.0815,-0.0875,-0.0899,-0.0917,-0.0929,-0.0912,-0.0898,-0.0835,-0.0722,-0.0544,-0.0105,0.0351,0.0516,0.0859,0.0828,0.0949,0.0999,0.102,0.1107,0.0727,0.0819,0.0819,0.0819,0.0819,0.0818,0,-0.0771,-0.0827,-0.0899,-0.0961,-0.0995,-0.0982,-0.099,-0.0989,-0.0982,-0.0873,-0.0767,-0.0306,0.0126,0.0534,0.1034,0.1212,0.1252,0.129,0.1343,0.1387,0.105,0.1062,0.1215,0.1215,0.1215,0.1215,0.1215,0.1215,-0.0804,-0.0896,-0.0944,-0.1028,-0.1054,-0.1075,-0.108,-0.1077,-0.1001,-0.0806,-0.0555,-0.0338,0.0261,0.1074,0.1528,0.1557,0.1714,0.1683,0.1779,0.1547,0.1519,0.1492,0.1519,0.1766,0.1766,0.2099,0.2102,0.2105]}],[{"header":{"parameterUnit":"m.s-1","parameterCategory":2,"la1":30.2991,"la2":30.254,"lo1":-89.0895,"lo2":-89.0444,"dy":0.0017,"dx":0.0017,"nx":28,"ny":28,"refTime":"2024-03-03T03:00:00:Z","depth":"2","parameterNumber":2,"parameterNumberName":"U-component_of_CURRENTS"},"data":[0,0,0,0,0,0,0,0,0,0,0,0,0,0,0,0,0,0,0,0,0,0,0,0,0,0,0,0,0,0,0,0,0,0,0,0,0,0,0,0,0,0,0,0,0,0,0,0,0,0,0,0,0,0,0,0,0,0,-0.1445,-0.1446,0,-0.1479,-0.1479,-0.1478,-0.1489,-0.149,-0.149,-0.1491,-0.1445,-0.1443,-0.1441,0,0,0,0,0,0,0,0,0,0,0,0,0,-0.1358,-0.1359,-0.1445,-0.1446,-0.1447,-0.1479,-0.1479,-0.1478,-0.1489,-0.149,-0.1491,-0.1491,-0.1445,-0.1443,-0.1441,0,0,0,0,0,0,0,0,0,0,0,0,0,-0.1387,-0.1359,-0.1445,-0.1462,-0.1465,-0.1479,-0.1479,-0.1478,-0.1489,-0.149,-0.1491,-0.1491,-0.1446,-0.1443,-0.1441,-0.1408,0,0,-0.1433,-0.1432,0,0,0,0,0,0,0,0,-0.1385,-0.1389,-0.1459,-0.1461,-0.1464,-0.1488,-0.1431,-0.1453,-0.1489,-0.1471,-0.1491,-0.1492,-0.1456,-0.1453,-0.1447,-0.1405,-0.1403,-0.1433,-0.1431,-0.143,-0.1429,0,0,0,0,0,0,0,-0.1383,-0.1387,-0.145,-0.146,-0.1463,-0.1458,-0.1462,-0.1435,-0.1451,-0.1473,-0.1476,-0.1492,-0.1456,-0.145,-0.1446,-0.1403,-0.1433,-0.143,-0.1429,-0.1428,-0.1393,-0.1394,0,0,0,0,0,0,-0.1395,-0.1386,-0.145,-0.1452,-0.1435,-0.146,-0.1464,-0.1473,-0.1453,-0.1454,-0.1491,-0.1492,-0.1454,-0.1449,-0.1444,-0.1496,-0.143,-0.1427,-0.1426,-0.1392,-0.1393,-0.1394,0,0,0,0,0,0,-0.1393,-0.14,-0.1448,-0.1426,-0.1433,-0.1461,-0.147,-0.1473,-0.1493,-0.1469,-0.1467,-0.1512,-0.1454,-0.1448,-0.1442,-0.149,-0.1426,-0.1424,-0.1391,-0.1392,-0.1393,-0.1539,0,0,0,0,0,0,-0.139,-0.1399,-0.1407,-0.1427,-0.1435,-0.1467,-0.147,-0.1473,-0.1504,-0.1506,-0.1486,-0.1481,-0.1454,-0.1446,-0.144,-0.1486,-0.1422,-0.1391,-0.1392,-0.1393,-0.1533,-0.1545,-0.1554,0,0,0,0,0,-0.1387,-0.1411,-0.1407,-0.1415,-0.1445,-0.1468,-0.147,-0.1488,-0.1504,-0.1508,-0.1504,-0.1483,-0.145,-0.1445,-0.1437,-0.1483,-0.139,-0.1392,-0.1393,-0.1528,-0.1542,-0.1554,0,0,0,0,0,0,-0.1382,-0.1415,-0.1411,-0.1444,-0.1455,-0.1473,-0.1495,-0.1502,-0.1502,-0.1514,-0.1487,-0.1481,-0.1487,-0.1456,-0.1452,-0.1472,-0.1418,-0.1418,-0.1523,-0.1536,-0.1546,-0.157,-0.142,0,0,0,0,0,-0.1382,-0.1401,-0.1425,-0.1445,-0.1463,-0.1478,-0.1493,-0.1504,-0.1513,-0.1516,-0.1505,-0.1492,-0.1481,-0.1488,-0.1454,-0.1472,-0.1446,-0.1494,-0.1505,-0.1515,-0.1526,-0.1514,-0.1526,-0.1399,-0.1399,-0.1399,0,0,-0.138,-0.1405,-0.1412,-0.1443,-0.1461,-0.1492,-0.1488,-0.1524,-0.1565,-0.1508,-0.1554,-0.1516,-0.1485,-0.1502,-0.1505,-0.1493,-0.1541,-0.1517,-0.1526,-0.1531,-0.1517,-0.153,-0.1541,-0.14,-0.1399,-0.1399,0,0,-0.1398,-0.1417,-0.1442,-0.1464,-0.1503,-0.1514,-0.1532,-0.156,-0.1594,-0.1609,-0.1593,-0.1601,-0.1564,-0.1583,-0.1581,-0.163,-0.158,-0.1605,-0.1706,-0.1696,-0.1707,-0.1716,-0.1726,-0.1735,-0.1633,-0.1634,-0.1634,0,-0.1394,-0.1438,-0.1449,-0.149,-0.1529,-0.1533,-0.158,-0.161,-0.163,-0.1652,-0.1637,-0.1616,-0.1615,-0.1657,-0.1693,-0.1663,-0.1634,-0.167,-0.1714,-0.1722,-0.1729,-0.1736,-0.1744,-0.1641,-0.164,-0.1639,-0.1639,0,-0.1435,-0.1476,-0.1505,-0.1553,-0.1582,-0.1628,-0.1676,-0.1714,-0.1739,-0.1737,-0.1765,-0.1756,-0.1738,-0.1759,-0.1754,-0.1812,-0.1767,-0.1715,-0.1692,-0.1752,-0.1754,-0.176,-0.1651,-0.1649,-0.1646,-0.1645,0,0,-0.1419,-0.1514,-0.1525,-0.156,-0.1634,-0.1653,-0.175,-0.1805,-0.1839,-0.1853,-0.1894,-0.1925,-0.1882,-0.1879,-0.1874,-0.1914,-0.1983,-0.1856,-0.1852,-0.1885,-0.1962,-0.1915,-0.1916,-0.1921,-0.1923,-0.1923,-0.1954,0,-0.1454,-0.154,-0.1586,-0.1658,-0.1711,-0.1765,-0.1828,-0.1872,-0.1901,-0.1926,-0.1954,-0.1946,-0.1939,-0.1933,-0.1973,-0.196,-0.1998,-0.198,-0.188,-0.1878,-0.1845,-0.1922,-0.1742,-0.175,-0.1959,-0.196,-0.196,0,-0.1488,-0.1547,-0.164,-0.1718,-0.1743,-0.1786,-0.1878,-0.1917,-0.1965,-0.1983,-0.1993,-0.1969,-0.2045,-0.201,-0.2048,-0.2021,-0.201,-0.2011,-0.2009,-0.1917,-0.1842,-0.1715,-0.1752,-0.1969,-0.1969,-0.1968,-0.1967,0,-0.1481,-0.1579,-0.1657,-0.1692,-0.1778,-0.1843,-0.1872,-0.1928,-0.1957,-0.2,-0.2009,-0.2033,-0.2052,-0.2048,-0.2066,-0.2043,-0.2088,-0.2041,-0.1992,-0.1989,-0.1794,-0.1771,-0.2059,-0.2059,-0.2059,-0.2059,-0.2059,0,-0.1515,-0.1564,-0.1658,-0.1707,-0.1754,-0.1816,-0.1859,-0.1901,-0.1952,-0.1956,-0.2002,-0.2032,-0.2058,-0.2082,-0.2078,-0.2064,-0.2085,-0.2031,-0.1998,-0.1841,-0.1823,-0.1963,-0.1951,-0.206,-0.206,-0.206,-0.206,0,-0.1494,-0.1565,-0.1641,-0.1747,-0.176,-0.1784,-0.1836,-0.1853,-0.1911,-0.1943,-0.196,-0.2037,-0.207,-0.2095,-0.2109,-0.2077,-0.207,-0.2051,-0.1885,-0.1833,-0.1977,-0.1973,-0.2006,-0.2005,-0.2003,-0.2003,-0.2002,0,-0.1494,-0.1532,-0.1641,-0.1652,-0.1706,-0.1738,-0.1752,-0.1818,-0.1845,-0.1938,-0.1956,-0.2025,-0.2048,-0.2071,-0.2028,-0.2006,-0.2053,-0.1829,-0.1769,-0.2011,-0.1974,-0.1971,-0.1968,-0.1576,-0.1572,-0.1569,-0.1566,0,-0.1463,-0.1509,-0.155,-0.1598,-0.1632,-0.1643,-0.1687,-0.1711,-0.1785,-0.1837,-0.1902,-0.1935,-0.1974,-0.1876,-0.1861,-0.1817,-0.1821,-0.1759,-0.2036,-0.1623,-0.1609,-0.1572,-0.1582,-0.1536,-0.1539,-0.1541,-0.1543,-0.1544,-0.1401,-0.1408,-0.1469,-0.1486,-0.1513,-0.1536,-0.1523,-0.1591,-0.1611,-0.1662,-0.1767,-0.1764,-0.1772,-0.166,-0.1596,-0.1541,-0.1661,-0.1566,-0.1575,-0.1588,-0.1538,-0.1523,-0.1426,-0.1428,-0.143,-0.1432,-0.1434,0,-0.1314,-0.1332,-0.1342,-0.1368,-0.1363,-0.1425,-0.1452,-0.1428,-0.1434,-0.1498,-0.1532,-0.1406,-0.1352,-0.1375,-0.1241,-0.1225,-0.1194,-0.1172,-0.1116,-0.1146,-0.1173,-0.1101,-0.0874,-0.0872,-0.0871,-0.087,0,0,-0.1252,-0.1232,-0.1233,-0.1194,-0.1219,-0.118,-0.1177,-0.1172,-0.1187,-0.1158,-0.1155,-0.1268,-0.1318,-0.1091,-0.104,-0.0935,-0.1028,-0.0887,-0.1331,-0.1292,-0.1318,-0.1392,-0.1314,0,0,0,0,0]},{"header":{"parameterUnit":"m.s-1","parameterCategory":2,"la1":30.2991,"la2":30.254,"lo1":-89.0895,"lo2":-89.0444,"dy":0.0017,"dx":0.0017,"nx":28,"ny":28,"refTime":"2024-03-03T03:00:00:Z","depth":"2","parameterNumber":3,"parameterNumberName":"V-component_of_CURRENTS"},"data":[0,0,0,0,0,0,0,0,0,0,0,0,0,0,0,0,0,0,0,0,0,0,0,0,0,0,0,0,0,0,0,0,0,0,0,0,0,0,0,0,0,0,0,0,0,0,0,0,0,0,0,0,0,0,0,0,0,0,-0.0252,-0.0251,0,-0.0146,-0.0145,-0.0144,-0.0102,-0.0102,-0.0102,-0.0102,-0.0007,-0.0004,-0.0002,0,0,0,0,0,0,0,0,0,0,0,0,0,-0.0362,-0.0361,-0.0252,-0.0251,-0.0249,-0.0146,-0.0145,-0.0143,-0.0102,-0.0102,-0.0102,-0.0102,-0.0008,-0.0005,-0.0001,0,0,0,0,0,0,0,0,0,0,0,0,0,-0.0294,-0.0361,-0.0253,-0.0214,-0.0209,-0.0146,-0.0144,-0.0143,-0.0102,-0.0102,-0.0102,-0.0102,-0.0008,-0.0005,-0.0001,0.0023,0,0,0.0011,0.0012,0,0,0,0,0,0,0,0,-0.0298,-0.029,-0.0221,-0.0216,-0.0211,-0.0134,-0.0148,-0.0087,-0.0102,-0.0145,-0.0102,-0.0102,-0.0049,-0.0041,-0.0025,0.0027,0.0031,0.0011,0.0013,0.0015,0.0016,0,0,0,0,0,0,0,-0.0303,-0.0294,-0.0213,-0.0219,-0.0213,-0.0181,-0.0173,-0.0136,-0.0101,-0.0142,-0.0138,-0.0121,-0.0046,-0.0029,-0.0023,0.0033,0.0011,0.0014,0.0017,0.0018,0.014,0.0141,0,0,0,0,0,0,-0.0313,-0.0299,-0.0216,-0.021,-0.0252,-0.018,-0.017,-0.0161,-0.0101,-0.009,-0.0121,-0.0119,-0.0036,-0.0027,-0.0019,0.0037,0.0015,0.0018,0.0021,0.0139,0.014,0.0141,0,0,0,0,0,0,-0.0316,-0.0307,-0.0221,-0.0249,-0.0235,-0.0178,-0.0168,-0.0159,-0.0138,-0.0084,-0.0075,-0.0109,-0.0035,-0.0025,0.0019,0.004,0.002,0.0024,0.0138,0.0139,0.0141,0.0133,0,0,0,0,0,0,-0.032,-0.0309,-0.031,-0.025,-0.0234,-0.019,-0.0168,-0.0157,-0.0126,-0.0123,-0.0071,-0.0062,-0.0034,0.0013,0.0023,0.0044,0.0027,0.0137,0.0138,0.014,0.0132,0.0134,0.0136,0,0,0,0,0,-0.0324,-0.0321,-0.0311,-0.0301,-0.0237,-0.019,-0.018,-0.014,-0.0126,-0.0121,-0.0078,-0.0063,0.0032,0.0017,0.0028,0.0051,0.0136,0.0138,0.014,0.0131,0.0134,0.0136,0,0,0,0,0,0,-0.0368,-0.0314,-0.0303,-0.0284,-0.0245,-0.0182,-0.0167,-0.014,-0.0102,-0.0096,-0.0052,-0.004,0.0004,0.0029,0.0012,0.0092,0.0087,0.0091,0.0076,0.0079,0.0081,0.0057,0.003,0,0,0,0,0,-0.0379,-0.0366,-0.0311,-0.0299,-0.0279,-0.0225,-0.0201,-0.0173,-0.0126,-0.0109,-0.007,-0.0023,0.0022,0.005,0.0084,0.0131,0.0139,0.0154,0.0156,0.0157,0.0146,0.0165,0.0166,0.0148,0.0148,0.0148,0,0,-0.0395,-0.0362,-0.0356,-0.0307,-0.0272,-0.0245,-0.0211,-0.0174,-0.0145,-0.0105,-0.0059,-0.0021,0.0032,0.0082,0.0105,0.0108,0.0172,0.016,0.016,0.0148,0.0167,0.0168,0.017,0.0149,0.0149,0.0149,0,0,-0.0411,-0.0387,-0.038,-0.0346,-0.0293,-0.026,-0.0251,-0.0189,-0.0155,-0.0106,-0.0067,-0.0018,0.0047,0.0095,0.0128,0.0162,0.0173,0.0175,0.0176,0.0195,0.0196,0.0197,0.0226,0.023,0.0185,0.0185,0.0185,0,-0.0432,-0.0413,-0.0371,-0.0348,-0.0321,-0.027,-0.0252,-0.0207,-0.0138,-0.0113,-0.0097,0.0002,0.0056,0.012,0.0142,0.0166,0.0173,0.0163,0.0195,0.0196,0.0197,0.0227,0.0231,0.0185,0.0185,0.0185,0.0185,0,-0.0437,-0.042,-0.0409,-0.0369,-0.0338,-0.0313,-0.0247,-0.0212,-0.0169,-0.0129,-0.0066,0.0006,0.0059,0.0098,0.0139,0.0183,0.0185,0.0186,0.0183,0.0198,0.0229,0.0234,0.0185,0.0185,0.0185,0.0185,0,0,-0.0483,-0.0428,-0.0423,-0.0412,-0.0346,-0.0323,-0.027,-0.0216,-0.0195,-0.0122,-0.0092,0.0015,0.0037,0.0076,0.0132,0.0171,0.0212,0.0184,0.0185,0.0202,0.0254,0.0281,0.0289,0.0208,0.0209,0.0209,0.0278,0,-0.0501,-0.0485,-0.0439,-0.042,-0.0408,-0.0341,-0.0304,-0.0246,-0.0195,-0.0156,-0.0069,-0.0026,0.0035,0.0059,0.0109,0.0179,0.022,0.0194,0.0246,0.0248,0.0261,0.0293,0.0265,0.0325,0.0282,0.0283,0.0283,0,-0.0513,-0.0504,-0.0494,-0.0455,-0.0442,-0.0422,-0.0369,-0.0325,-0.0249,-0.0211,-0.0154,-0.0102,-0.0012,0.002,0.0141,0.0115,0.0181,0.0237,0.024,0.0265,0.0282,0.0302,0.0334,0.029,0.029,0.0289,0.0289,0,-0.0572,-0.0537,-0.0539,-0.0521,-0.047,-0.0449,-0.0421,-0.0351,-0.0322,-0.0255,-0.0245,-0.0148,-0.01,-0.0013,0.0126,0.0124,0.0242,0.025,0.0337,0.034,0.0327,0.0328,0.0316,0.0316,0.0316,0.0315,0.0315,0,-0.0603,-0.06,-0.0572,-0.0569,-0.0574,-0.0511,-0.0501,-0.0454,-0.0403,-0.039,-0.0291,-0.0264,-0.011,-0.0016,0.0097,0.0238,0.022,0.034,0.0359,0.0327,0.0328,0.0299,0.0296,0.0318,0.0317,0.0317,0.0316,0,-0.0656,-0.0631,-0.0636,-0.0608,-0.0598,-0.0602,-0.056,-0.0556,-0.05,-0.0481,-0.0465,-0.0347,-0.0215,-0.0056,0.0104,0.0204,0.0332,0.0381,0.0345,0.0359,0.0424,0.042,0.0481,0.0482,0.0483,0.0484,0.0485,0,-0.0679,-0.0689,-0.0685,-0.0692,-0.0678,-0.0672,-0.0667,-0.0611,-0.0604,-0.0532,-0.0532,-0.0402,-0.0299,-0.0041,0.0157,0.0358,0.0364,0.0443,0.0442,0.0428,0.044,0.0434,0.0429,0.043,0.0431,0.0431,0.0431,0,-0.0722,-0.0723,-0.0723,-0.0766,-0.0769,-0.0773,-0.0762,-0.0772,-0.0707,-0.0685,-0.0623,-0.0536,-0.0272,-0.004,0.0234,0.0343,0.0411,0.0456,0.0445,0.0393,0.0386,0.0396,0.0392,0.0434,0.0434,0.0434,0.0433,0.0433,-0.0747,-0.0771,-0.0787,-0.0821,-0.0835,-0.0862,-0.0871,-0.0859,-0.0848,-0.0793,-0.0697,-0.0546,-0.0301,0.0087,0.0285,0.0468,0.046,0.0507,0.0503,0.05,0.0481,0.0477,0.054,0.054,0.054,0.0541,0.0541,0,-0.0778,-0.0808,-0.0843,-0.0873,-0.0912,-0.0909,-0.0921,-0.0921,-0.0916,-0.0826,-0.0736,-0.0477,-0.0193,0.0063,0.036,0.0537,0.052,0.0559,0.0508,0.0504,0.05,0.048,0.0539,0.054,0.0541,0.0541,0,0,-0.0789,-0.083,-0.0852,-0.0921,-0.0955,-0.099,-0.1,-0.0994,-0.093,-0.085,-0.0721,-0.0523,-0.0194,0.0017,0.0246,0.0407,0.0405,0.0413,0.0393,0.0301,0.0296,0.0447,0.0409,0,0,0,0,0]}],[{"header":{"parameterUnit":"m.s-1","parameterCategory":2,"la1":30.2991,"la2":30.254,"lo1":-89.0895,"lo2":-89.0444,"dy":0.0017,"dx":0.0017,"nx":28,"ny":28,"refTime":"2024-03-03T03:00:00:Z","depth":"4","parameterNumber":2,"parameterNumberName":"U-component_of_CURRENTS"},"data":[0,0,0,0,0,0,0,0,0,0,0,0,0,0,0,0,0,0,0,0,0,0,0,0,0,0,0,0,0,0,0,0,0,0,0,0,0,0,0,0,0,0,0,0,0,0,0,0,0,0,0,0,0,0,0,0,0,0,-0.082,-0.082,0,-0.0862,-0.0862,-0.0863,-0.0881,-0.0881,-0.0881,-0.0881,-0.0916,-0.0917,-0.0918,0,0,0,0,0,0,0,0,0,0,0,0,0,-0.0764,-0.0765,-0.082,-0.082,-0.0821,-0.0862,-0.0862,-0.0863,-0.0881,-0.0881,-0.0881,-0.0881,-0.0916,-0.0917,-0.0918,0,0,0,0,0,0,0,0,0,0,0,0,0,-0.0794,-0.0765,-0.082,-0.0836,-0.0838,-0.0862,-0.0862,-0.0863,-0.0881,-0.0881,-0.0881,-0.0881,-0.0916,-0.0917,-0.0918,-0.0924,0,0,-0.0922,-0.0923,0,0,0,0,0,0,0,0,-0.0792,-0.0796,-0.0833,-0.0835,-0.0837,-0.0868,-0.0856,-0.0883,-0.0881,-0.0863,-0.0881,-0.0881,-0.09,-0.0903,-0.0908,-0.0925,-0.0927,-0.0922,-0.0923,-0.0924,-0.0924,0,0,0,0,0,0,0,-0.079,-0.0794,-0.0835,-0.0834,-0.0837,-0.0845,-0.0849,-0.0861,-0.0879,-0.0865,-0.0866,-0.0874,-0.0901,-0.0907,-0.0909,-0.0927,-0.0922,-0.0923,-0.0924,-0.0925,-0.0995,-0.0996,0,0,0,0,0,0,-0.0788,-0.0792,-0.0834,-0.0836,-0.0817,-0.0846,-0.085,-0.0857,-0.0879,-0.0883,-0.0874,-0.0874,-0.0905,-0.0908,-0.0911,-0.0956,-0.0924,-0.0925,-0.0925,-0.0994,-0.0996,-0.0997,0,0,0,0,0,0,-0.0786,-0.0791,-0.0832,-0.0817,-0.0823,-0.0847,-0.0854,-0.0857,-0.0877,-0.0886,-0.089,-0.089,-0.0905,-0.0909,-0.0938,-0.0956,-0.0925,-0.0926,-0.0993,-0.0995,-0.0996,-0.1023,0,0,0,0,0,0,-0.0785,-0.079,-0.0801,-0.0816,-0.0823,-0.0856,-0.0854,-0.0858,-0.0881,-0.0883,-0.0902,-0.0904,-0.0905,-0.0937,-0.094,-0.0957,-0.0927,-0.0992,-0.0994,-0.0996,-0.102,-0.1025,-0.1029,0,0,0,0,0,-0.0782,-0.0794,-0.0801,-0.0806,-0.0835,-0.0857,-0.0862,-0.0878,-0.0882,-0.0895,-0.0911,-0.0905,-0.0952,-0.0939,-0.0942,-0.096,-0.0991,-0.0993,-0.0996,-0.1018,-0.1024,-0.1029,0,0,0,0,0,0,-0.0775,-0.0798,-0.0805,-0.0824,-0.0844,-0.0861,-0.0876,-0.0886,-0.0909,-0.0914,-0.0919,-0.0923,-0.0956,-0.0957,-0.0942,-0.0988,-0.097,-0.0973,-0.0986,-0.0992,-0.0996,-0.1007,-0.0929,0,0,0,0,0,-0.0779,-0.0794,-0.0816,-0.0832,-0.0843,-0.0862,-0.0875,-0.0888,-0.0907,-0.0918,-0.0933,-0.095,-0.0967,-0.0978,-0.0994,-0.1018,-0.1042,-0.1033,-0.1037,-0.1041,-0.1053,-0.1124,-0.1136,-0.1005,-0.1005,-0.1005,0,0,-0.0781,-0.0795,-0.0805,-0.0832,-0.0847,-0.0871,-0.087,-0.0897,-0.0921,-0.0918,-0.0958,-0.0967,-0.0978,-0.1007,-0.1021,-0.1011,-0.1086,-0.1044,-0.1047,-0.1057,-0.1128,-0.1141,-0.1152,-0.1007,-0.1006,-0.1006,0,0,-0.0788,-0.0805,-0.082,-0.0841,-0.0871,-0.0886,-0.0897,-0.0925,-0.0943,-0.0979,-0.0984,-0.1008,-0.1035,-0.1047,-0.1055,-0.1094,-0.1108,-0.1097,-0.1126,-0.1195,-0.1206,-0.1217,-0.1243,-0.1256,-0.1097,-0.1098,-0.1098,0,-0.0791,-0.0812,-0.0829,-0.0851,-0.0873,-0.0894,-0.092,-0.0942,-0.0979,-0.1005,-0.0998,-0.1062,-0.1055,-0.1103,-0.1104,-0.1103,-0.1137,-0.1103,-0.1201,-0.1213,-0.1223,-0.1248,-0.1262,-0.1099,-0.1099,-0.1099,-0.1099,0,-0.0807,-0.0832,-0.0844,-0.0879,-0.0905,-0.0931,-0.0964,-0.0995,-0.1019,-0.1049,-0.1109,-0.1115,-0.1156,-0.1151,-0.1132,-0.1201,-0.1197,-0.12,-0.1188,-0.1238,-0.126,-0.1274,-0.1101,-0.1101,-0.11,-0.11,0,0,-0.0785,-0.0844,-0.0849,-0.0876,-0.0924,-0.0947,-0.0992,-0.1044,-0.1103,-0.1129,-0.1205,-0.1207,-0.1227,-0.1237,-0.1231,-0.1271,-0.1341,-0.1263,-0.1265,-0.1288,-0.1479,-0.1344,-0.1346,-0.1374,-0.1377,-0.138,-0.1457,0,-0.0792,-0.0834,-0.0867,-0.0919,-0.0943,-0.0988,-0.1043,-0.1098,-0.115,-0.1232,-0.125,-0.1318,-0.1258,-0.1291,-0.132,-0.1347,-0.1384,-0.1319,-0.1428,-0.1431,-0.1306,-0.136,-0.1389,-0.1467,-0.1471,-0.1473,-0.1475,0,-0.079,-0.0822,-0.0866,-0.0953,-0.0973,-0.1015,-0.1114,-0.1171,-0.1279,-0.1329,-0.1392,-0.1426,-0.1471,-0.1431,-0.1498,-0.1466,-0.1473,-0.1485,-0.1489,-0.1367,-0.1323,-0.1413,-0.15,-0.1498,-0.1496,-0.1494,-0.1493,0,-0.0753,-0.0823,-0.086,-0.0884,-0.0983,-0.1024,-0.1086,-0.1197,-0.1273,-0.1401,-0.1472,-0.1544,-0.1584,-0.1623,-0.1595,-0.1577,-0.1676,-0.1659,-0.1547,-0.1537,-0.1623,-0.1611,-0.1733,-0.1733,-0.1733,-0.1733,-0.1733,0,-0.0738,-0.0773,-0.0849,-0.0871,-0.0945,-0.1022,-0.114,-0.1208,-0.1352,-0.1448,-0.152,-0.1585,-0.164,-0.1681,-0.1664,-0.1627,-0.173,-0.1563,-0.1559,-0.1627,-0.1615,-0.1631,-0.1618,-0.1736,-0.1735,-0.1734,-0.1734,0,-0.0691,-0.0741,-0.0789,-0.0888,-0.0927,-0.0978,-0.115,-0.1249,-0.1373,-0.1497,-0.1539,-0.1642,-0.1677,-0.1706,-0.1765,-0.1692,-0.1694,-0.1658,-0.1713,-0.1709,-0.1494,-0.1482,-0.1562,-0.1559,-0.1555,-0.1553,-0.155,0,-0.0669,-0.0686,-0.0779,-0.0822,-0.0868,-0.0977,-0.1075,-0.1231,-0.1326,-0.1499,-0.154,-0.163,-0.167,-0.1642,-0.1677,-0.1667,-0.1632,-0.1628,-0.1566,-0.1495,-0.1483,-0.1476,-0.1468,-0.1545,-0.1544,-0.1543,-0.1542,0,-0.0623,-0.0657,-0.0696,-0.0774,-0.0859,-0.0975,-0.1102,-0.1161,-0.1338,-0.1462,-0.1505,-0.1524,-0.1561,-0.1565,-0.1563,-0.1548,-0.1634,-0.1594,-0.16,-0.1541,-0.1475,-0.1465,-0.1461,-0.1531,-0.1533,-0.1534,-0.1535,0,-0.0584,-0.0593,-0.0648,-0.0714,-0.0828,-0.0923,-0.101,-0.1115,-0.1219,-0.1385,-0.1388,-0.1464,-0.1544,-0.1503,-0.1502,-0.1476,-0.1448,-0.1396,-0.1412,-0.1425,-0.1338,-0.123,-0.1221,0,0,0,0,0,-0.0535,-0.0544,-0.0599,-0.0675,-0.0795,-0.0859,-0.1016,-0.1109,-0.1257,-0.1253,-0.1318,-0.1339,-0.1336,-0.1373,-0.1315,-0.1434,-0.1451,-0.136,-0.14,-0.1468,-0.1482,-0.1387,0,0,0,0,0,0,-0.0505,-0.0536,-0.056,-0.0633,-0.069,-0.0821,-0.0911,-0.1012,-0.102,-0.1151,-0.1153,-0.1246,-0.126,-0.134,-0.1282,-0.1293,-0.1288,-0.1411,-0.1407,-0.1461,-0.1473,-0.1483,-0.1391,0,0,0,0,0]},{"header":{"parameterUnit":"m.s-1","parameterCategory":2,"la1":30.2991,"la2":30.254,"lo1":-89.0895,"lo2":-89.0444,"dy":0.0017,"dx":0.0017,"nx":28,"ny":28,"refTime":"2024-03-03T03:00:00:Z","depth":"4","parameterNumber":3,"parameterNumberName":"V-component_of_CURRENTS"},"data":[0,0,0,0,0,0,0,0,0,0,0,0,0,0,0,0,0,0,0,0,0,0,0,0,0,0,0,0,0,0,0,0,0,0,0,0,0,0,0,0,0,0,0,0,0,0,0,0,0,0,0,0,0,0,0,0,0,0,-0.0111,-0.0111,0,-0.0085,-0.0084,-0.0084,-0.0064,-0.0064,-0.0064,-0.0063,-0.003,-0.003,-0.0029,0,0,0,0,0,0,0,0,0,0,0,0,0,-0.0119,-0.0119,-0.0111,-0.011,-0.011,-0.0085,-0.0084,-0.0084,-0.0064,-0.0064,-0.0063,-0.0063,-0.0031,-0.003,-0.0029,0,0,0,0,0,0,0,0,0,0,0,0,0,-0.0106,-0.0119,-0.0111,-0.0098,-0.0096,-0.0085,-0.0084,-0.0084,-0.0064,-0.0064,-0.0063,-0.0063,-0.0031,-0.003,-0.0029,-0.0025,0,0,-0.0025,-0.0025,0,0,0,0,0,0,0,0,-0.0107,-0.0106,-0.01,-0.0099,-0.0097,-0.0078,-0.0075,-0.0064,-0.0064,-0.0075,-0.0063,-0.0063,-0.0046,-0.0044,-0.0038,-0.0023,-0.0022,-0.0025,-0.0024,-0.0024,-0.0023,0,0,0,0,0,0,0,-0.0108,-0.0106,-0.0099,-0.01,-0.0098,-0.0085,-0.0083,-0.0073,-0.0061,-0.0074,-0.0073,-0.0072,-0.0045,-0.0039,-0.0037,-0.0021,-0.0025,-0.0024,-0.0023,-0.0023,0.001,0.0011,0,0,0,0,0,0,-0.0114,-0.0107,-0.01,-0.0099,-0.0103,-0.0085,-0.0083,-0.0084,-0.0061,-0.0058,-0.0072,-0.0071,-0.0041,-0.0039,-0.0036,-0.0029,-0.0024,-0.0023,-0.0022,0.001,0.001,0.0011,0,0,0,0,0,0,-0.0115,-0.0114,-0.0101,-0.0103,-0.0101,-0.0086,-0.0086,-0.0083,-0.0078,-0.006,-0.0056,-0.0069,-0.0041,-0.0038,-0.0026,-0.0028,-0.0022,-0.0021,0.001,0.001,0.001,-0.0016,0,0,0,0,0,0,-0.0115,-0.0114,-0.0117,-0.0104,-0.0101,-0.0098,-0.0086,-0.0083,-0.0077,-0.0076,-0.0057,-0.0053,-0.0041,-0.0027,-0.0024,-0.0026,-0.002,0.001,0.001,0.001,-0.0015,-0.0016,-0.0017,0,0,0,0,0,-0.0115,-0.0123,-0.0118,-0.0117,-0.0106,-0.0098,-0.0096,-0.0084,-0.0078,-0.0077,-0.0062,-0.0054,-0.0023,-0.0026,-0.0023,-0.0024,0.001,0.001,0.001,-0.0015,-0.0016,-0.0017,0,0,0,0,0,0,-0.0127,-0.0121,-0.0115,-0.012,-0.0111,-0.0095,-0.0096,-0.0086,-0.0073,-0.0072,-0.0053,-0.0049,-0.0039,-0.0026,-0.0031,-0.0012,-0.0005,-0.0004,-0.0025,-0.0026,-0.0028,-0.0035,-0.0019,0,0,0,0,0,-0.0132,-0.0136,-0.0125,-0.0128,-0.0126,-0.0111,-0.0106,-0.0098,-0.0085,-0.0079,-0.0064,-0.0048,-0.0034,-0.0027,-0.0014,-0.0005,0.002,-0.0002,-0.0003,-0.0005,-0.0007,0.0036,0.0039,0.0012,0.0012,0.0012,0,0,-0.0138,-0.0135,-0.0137,-0.0131,-0.0123,-0.0124,-0.0108,-0.0104,-0.0102,-0.0078,-0.007,-0.0053,-0.0033,-0.0023,-0.0017,-0.0013,0.0016,-0.0004,-0.0005,-0.0007,0.0037,0.004,0.0042,0.0012,0.0012,0.0012,0,0,-0.0153,-0.0149,-0.0157,-0.0152,-0.0144,-0.0135,-0.0135,-0.012,-0.0111,-0.0101,-0.0083,-0.0067,-0.0047,-0.0032,-0.0022,-0.0021,0.0007,-0.0016,-0.0028,0.0015,0.0017,0.002,0.0052,0.0058,-0.0015,-0.0015,-0.0015,0,-0.0159,-0.0169,-0.0157,-0.0163,-0.0163,-0.0142,-0.015,-0.0137,-0.0118,-0.0113,-0.0103,-0.0066,-0.0052,-0.0034,-0.0034,-0.0025,0.0004,-0.0026,0.0013,0.0016,0.0019,0.0052,0.0058,-0.0017,-0.0016,-0.0016,-0.0016,0,-0.0178,-0.0186,-0.0191,-0.0191,-0.0189,-0.0193,-0.0176,-0.0169,-0.0155,-0.0139,-0.0118,-0.0089,-0.0067,-0.0059,-0.0048,-0.0021,-0.0007,0.0005,0.0015,0.002,0.0054,0.0062,-0.0018,-0.0018,-0.0017,-0.0017,0,0,-0.0191,-0.0203,-0.0205,-0.0217,-0.0206,-0.021,-0.0203,-0.0194,-0.0191,-0.0161,-0.015,-0.0121,-0.0099,-0.0086,-0.0062,-0.0027,0.0015,-0.0004,-0.0002,0.0024,0.0108,0.0092,0.0098,0.004,0.0041,0.0042,0.0122,0,-0.0209,-0.0235,-0.0231,-0.0254,-0.0266,-0.0249,-0.0249,-0.0235,-0.0212,-0.0194,-0.0153,-0.0133,-0.011,-0.0098,-0.0058,-0.0006,0.0034,-0.0008,0.0102,0.0105,0.0087,0.0106,0.0046,0.0127,0.0129,0.013,0.0131,0,-0.0227,-0.0244,-0.0272,-0.0295,-0.0299,-0.0307,-0.0304,-0.0298,-0.0262,-0.0244,-0.0205,-0.0168,-0.012,-0.0096,0.0006,-0.0019,0.0041,0.0086,0.0091,0.0089,0.0102,0.0123,0.0145,0.0144,0.0143,0.0142,0.0141,0,-0.0245,-0.0273,-0.0301,-0.0307,-0.0323,-0.0334,-0.0338,-0.0315,-0.0316,-0.0269,-0.0261,-0.0188,-0.0156,-0.0066,0.0024,0.0022,0.014,0.0152,0.0197,0.0196,0.0198,0.0195,0.0233,0.0233,0.0233,0.0232,0.0232,0,-0.0265,-0.0288,-0.0317,-0.0332,-0.0372,-0.0365,-0.039,-0.0378,-0.0359,-0.0362,-0.0289,-0.0269,-0.0144,-0.0064,0.0024,0.0128,0.0146,0.0198,0.0218,0.0185,0.0179,0.0203,0.0199,0.0235,0.0235,0.0234,0.0234,0,-0.0277,-0.0294,-0.0335,-0.0368,-0.0383,-0.0409,-0.044,-0.0455,-0.0426,-0.0423,-0.041,-0.0324,-0.0218,-0.0094,0.0052,0.0117,0.0224,0.026,0.0208,0.0225,0.0253,0.0246,0.032,0.032,0.032,0.032,0.032,0,-0.0285,-0.0305,-0.0365,-0.0403,-0.0423,-0.0463,-0.0494,-0.0489,-0.0498,-0.046,-0.046,-0.036,-0.029,-0.0094,0.0036,0.0214,0.0236,0.0292,0.0279,0.025,0.0264,0.0257,0.025,0.0321,0.0321,0.0321,0.0321,0,-0.0299,-0.0322,-0.0359,-0.0439,-0.0489,-0.0543,-0.0579,-0.059,-0.0576,-0.0556,-0.0494,-0.0386,-0.0266,-0.0105,0.0037,0.016,0.0255,0.0293,0.0294,0.0282,0.0252,0.0264,0.0257,0.0321,0.0321,0.0321,0.0321,0,-0.0309,-0.0343,-0.04,-0.047,-0.0544,-0.0602,-0.0618,-0.0624,-0.0625,-0.0568,-0.055,-0.0411,-0.0321,-0.0133,-0.0008,0.0118,0.0148,0.0184,0.019,0.0192,0.0128,0.0069,0.0103,0,0,0,0,0,-0.0311,-0.0355,-0.0429,-0.0511,-0.059,-0.0631,-0.0669,-0.0672,-0.0653,-0.0617,-0.0579,-0.0464,-0.0267,-0.0178,-0.0055,-0.0011,0.0163,0.0135,0.0206,0.0323,0.0323,0.0268,0,0,0,0,0,0,-0.0316,-0.0378,-0.0426,-0.0535,-0.0598,-0.0679,-0.0705,-0.0696,-0.0662,-0.0621,-0.0512,-0.0446,-0.025,-0.0339,-0.0057,-0.0018,0.004,0.0234,0.0236,0.0324,0.0323,0.0323,0.0266,0,0,0,0,0]}]]